Vorticity
12 11 5 10 11 8 7 6 6 9 5 5 5 8 8 6 4 7 8 8 8 7 7 7 8 7 6
27 21 12 7 4 7 8 9 9 8 4 7 11 10 6 7 11 9 7 6 6 7 5 6 5 6 7
10 15 15 18 21 22 18 15 11 13 14 11 10 10 7 10 11 11 11 10 10 9 9 7 7 7 7
-0 0 -0 4 8 8 11 13 16 17 16 15 11 11 11 10 9 9 10 9 8 8 7 7 7 8 8
14 7 2 5 4 -1 3 5 5 4 6 5 3 9 13 12 15 14 9 6 8 8 7 6 7 5 4
-2 5 3 6 11 11 4 1 3 14 8 8 7 7 8 7 4 1 1 2 2 1 1 5 8 8 9
24 24 22 17 16 18 21 14 9 10 9 17 10 7 6 6 8 9 10 10 9 8 7 7 7 7 7
16 14 16 18 19 16 15 18 23 24 22 22 24 24 19 14 10 8 7 6 6 8 9 8 8 8 8
11 10 13 13 13 13 15 17 18 15 18 22 18 23 25 24 24 26 22 20 16 14 12 11 9 8 7
11 11 10 10 9 9 8 7 8 10 14 16 15 14 14 17 19 19 20 22 23 23 24 22 17 15 14
9 10 9 9 8 8 8 9 9 8 7 7 8 8 9 11 11 13 15 14 15 16 16 17 18 23 22
10 10 11 11 11 11 12 11 10 9 8 10 10 9 10 10 10 10 7 7 8 9 10 11 12 13 16
14 14 14 14 14 14 14 13 12 12 13 10 11 11 9 7 6 7 8 9 10 10 7 7 7 7 8
23 24 22 23 23 23 23 23 23 22 24 22 20 22 20 19 14 12 14 11 16 14 12 10 10 10 8
21 21 22 22 23 23 25 24 26 27 25 29 30 29 32 30 33 32 27 26 22 24 24 19 18 18 19
19 18 17 17 17 18 19 19 19 21 21 19 17 18 20 22 22 24 25 25 24 23 26 28 26 25 25
12 11 11 10 11 12 13 14 15 17 16 16 17 18 17 16 14 17 17 16 14 14 13 14 16 15 15
Height
5626 5630 5634 5636 5641 5645 5649 5653 5656 5660 5664 5668 5672 5675 5679 5682 5687 5691 5695 5699 5703 5707 5712 5717 5721 5726 5731
5605 5609 5612 5615 5619 5624 5627 5631 5635 5638 5643 5646 5650 5654 5658 5662 5666 5670 5674 5678 5682 5687 5691 5697 5700 5705 5710
5586 5587 5591 5593 5598 5602 5605 5609 5612 5616 5620 5624 5628 5632 5637 5641 5644 5648 5651 5655 5660 5665 5670 5675 5679 5684 5689
5570 5570 5572 5573 5577 5579 5583 5587 5590 5594 5598 5602 5605 5609 5614 5618 5623 5626 5629 5633 5637 5642 5647 5652 5656 5661 5666
5549 5551 5552 5554 5555 5557 5562 5565 5568 5570 5574 5578 5584 5587 5590 5594 5598 5603 5606 5610 5615 5619 5624 5627 5632 5637 5642
5526 5529 5530 5531 5531 5535 5538 5542 5549 5547 5549 5555 5556 5562 5566 5570 5573 5578 5581 5585 5590 5595 5599 5603 5608 5612 5617
5500 5503 5505 5505 5507 5510 5510 5514 5518 5521 5522 5529 5529 5535 5537 5543 5547 5550 5553 5557 5563 5567 5571 5576 5581 5586 5592
5477 5479 5480 5481 5481 5484 5486 5488 5491 5493 5491 5502 5500 5507 5509 5515 5518 5520 5524 5529 5533 5538 5543 5548 5553 5558 5563
5457 5459 5459 5459 5459 5460 5462 5465 5469 5469 5470 5471 5475 5480 5484 5489 5490 5491 5493 5498 5503 5508 5513 5518 5523 5528 5534
5437 5437 5437 5437 5437 5436 5439 5443 5446 5450 5449 5449 5451 5454 5461 5467 5468 5466 5468 5471 5474 5479 5483 5489 5493 5498 5506
5416 5415 5415 5415 5415 5415 5417 5419 5424 5427 5426 5427 5431 5433 5436 5444 5445 5445 5447 5448 5449 5454 5458 5462 5465 5469 5477
5394 5394 5393 5393 5394 5395 5396 5397 5399 5403 5405 5404 5409 5410 5411 5419 5423 5423 5423 5425 5427 5431 5433 5435 5440 5445 5451
5372 5372 5371 5371 5372 5372 5373 5374 5377 5379 5379 5380 5383 5385 5388 5394 5397 5399 5400 5401 5403 5406 5407 5411 5416 5421 5428
5351 5351 5350 5350 5351 5349 5351 5352 5355 5357 5354 5355 5356 5357 5362 5366 5369 5374 5372 5376 5375 5377 5380 5389 5394 5397 5402
5333 5333 5333 5332 5333 5332 5333 5334 5336 5336 5336 5334 5332 5334 5337 5340 5344 5346 5348 5349 5349 5352 5355 5364 5368 5371 5374
5318 5318 5319 5319 5319 5319 5319 5319 5321 5320 5321 5319 5317 5318 5320 5323 5323 5324 5325 5327 5329 5331 5335 5339 5344 5345 5349
5307 5307 5307 5307 5307 5307 5306 5307 5307 5307 5307 5306 5305 5304 5305 5308 5306 5306 5310 5312 5314 5317 5318 5321 5325 5329 5329